Temperature
21 22 21 21 21 21 21 21 21 21 21 21 21 21 20 20 20 20 20 20 20 20 20 20 20 20 20 20 19 19 19 19 19 18 18 18 18 18 18 18 18 18 18
22 22 22 21 21 21 21 21 21 21 21 21 21 21 20 20 20 20 20 20 20 20 20 20 20 20 20 20 20 20 20 19 19 19 19 18 18 18 18 18 18 18 18
23 22 22 22 21 21 21 21 21 21 21 21 21 21 21 21 21 21 20 20 20 20 20 20 20 20 20 20 20 20 20 19 19 19 19 19 19 19 19 18 18 18 18
24 23 22 22 21 21 21 21 21 21 21 21 21 21 21 21 21 21 21 21 21 21 21 20 20 20 20 20 20 20 20 19 19 19 19 19 19 19 19 19 19 18 18
24 23 22 22 21 21 21 21 21 21 21 21 21 21 21 21 21 21 21 21 21 20 21 20 20 20 20 20 20 20 20 19 19 19 19 18 18 18 18 19 19 19 18
24 23 22 22 22 21 21 21 21 21 21 21 21 21 21 21 21 20 20 20 20 20 20 20 20 20 20 20 20 20 20 19 19 18 18 18 18 18 18 19 19 19 19
24 23 22 22 22 21 21 21 21 21 21 21 21 21 21 20 20 20 20 20 20 20 20 20 20 20 20 20 20 20 20 19 19 18 18 18 18 18 18 18 18 19 19
24 23 23 22 22 22 21 21 21 21 21 21 21 21 20 20 20 20 20 20 20 20 20 20 20 20 20 20 19 19 19 19 19 19 18 18 18 17 17 18 18 18 19
24 24 23 22 22 22 22 21 21 21 21 21 21 21 20 20 20 20 20 20 20 19 20 20 20 19 19 19 19 19 19 19 19 19 19 18 18 17 17 18 18 18 18
24 24 24 23 23 22 22 22 21 21 21 21 21 21 20 20 20 20 20 19 19 19 19 19 19 19 19 19 19 19 19 19 19 19 19 19 18 18 18 18 18 18 18
24 24 24 23 23 22 22 22 21 21 21 21 21 21 20 20 20 20 19 19 19 19 19 19 19 19 19 19 19 19 19 19 19 19 19 19 19 18 18 18 18 18 18
24 24 24 24 23 23 22 22 21 21 21 21 21 20 20 20 20 20 19 19 19 19 19 18 18 18 19 19 19 19 19 19 19 19 19 19 19 18 18 18 18 18 18
24 24 24 24 23 23 22 22 21 21 21 20 20 20 20 20 19 19 19 19 18 18 18 18 18 18 18 18 19 19 19 19 19 19 19 19 19 18 18 18 18 18 18
24 24 24 23 23 23 22 22 21 21 21 20 20 20 19 19 19 19 19 19 18 18 18 18 18 18 18 18 18 18 18 18 18 18 19 19 19 18 18 18 18 18 18
24 24 23 23 22 22 22 21 21 20 20 20 20 19 19 19 19 19 18 18 18 18 18 18 18 18 18 18 18 18 18 18 18 18 18 19 19 18 18 18 18 18 18
24 23 23 22 22 22 21 21 20 20 20 20 19 19 19 19 19 18 18 18 18 18 18 17 17 17 17 17 17 17 18 18 18 18 18 18 18 18 18 18 18 18 18
23 22 22 22 21 21 21 20 20 20 20 19 19 19 19 19 19 19 19 18 18 18 18 17 17 17 17 17 17 17 17 17 18 18 18 18 18 18 18 18 18 18 18
22 22 21 20 20 20 20 20 20 19 19 19 19 19 19 19 19 19 19 18 18 18 18 17 17 17 17 17 17 17 17 18 18 18 18 18 18 18 18 18 18 18 18
21 20 20 20 19 19 19 19 19 19 19 19 19 19 19 19 19 19 19 18 18 18 18 17 17 17 17 17 17 17 17 18 18 18 18 18 18 18 18 18 18 18 18
20 20 19 19 18 19 19 19 18 19 19 19 19 19 19 19 19 19 19 19 18 18 18 17 17 17 17 17 17 17 17 18 18 18 18 18 18 18 18 18 18 18 17
19 19 19 18 18 18 19 18 18 19 19 19 19 19 19 19 19 19 19 19 19 19 18 18 17 17 17 17 17 17 18 18 18 18 18 18 18 18 17 17 17 18 18
19 19 18 18 18 18 18 18 18 18 18 19 19 19 19 19 19 19 19 19 19 19 18 18 18 17 17 16 16 16 16 17 17 17 17 17 17 17 17 17 17 17 17
18 17 17 17 17 18 18 18 18 18 18 18 19 19 19 19 19 19 19 19 19 19 18 18 18 17 17 17 16 15 15 15 15 16 17 17 17 17 17 17 17 17 17
17 17 17 17 17 17 17 17 18 18 18 18 18 18 18 18 18 18 18 18 18 18 18 18 18 17 17 17 16 16 15 14 14 14 16 16 16 17 17 17 17 17 17
16 16 16 16 16 16 16 16 17 17 17 17 17 17 17 17 17 17 17 17 17 17 17 17 17 17 17 17 16 16 15 15 15 14 14 15 16 16 16 16 17 17 17
16 16 16 16 16 16 16 16 16 16 16 16 16 16 16 16 16 16 16 16 16 17 17 17 17 17 17 16 16 16 15 15 15 14 14 14 15 16 16 16 16 17 17
Wind_Speed
11 15 22 21 21 20 19 19 18 18 18 18 18 18 18 18 18 18 18 17 16 15 14 14 13 13 13 13 13 13 14 14 15 15 15 15 15 14 13 15 15 14 16
16 19 23 23 22 21 20 19 19 19 18 18 18 17 17 17 17 17 16 16 15 14 13 13 12 12 12 12 12 12 12 12 13 13 14 14 13 12 12 14 14 13 15
19 19 22 23 23 22 21 20 19 19 19 18 17 17 16 16 16 15 15 15 14 13 12 12 11 11 11 10 10 10 10 10 10 11 11 10 11 12 13 15 14 14 14
19 18 21 24 24 23 22 20 19 19 19 18 17 17 16 16 15 15 14 14 13 12 12 11 10 10 10 9 9 9 8 8 8 9 9 9 9 12 14 15 14 13 13
15 17 22 25 24 23 22 20 19 19 18 18 17 16 16 15 15 14 13 13 12 12 12 11 10 10 9 8 8 7 7 7 6 6 6 9 10 13 15 15 15 13 12
15 16 22 25 24 23 22 20 19 19 18 18 17 16 15 15 14 13 13 12 12 12 11 11 10 10 9 9 8 7 7 7 7 6 6 9 12 16 17 17 16 15 14
14 14 21 24 24 23 22 21 19 19 18 17 17 16 15 14 14 13 12 12 12 11 11 11 11 11 11 10 10 9 9 8 8 7 6 8 13 19 19 19 19 17 16
18 14 18 24 24 23 22 21 20 19 18 17 17 16 15 14 14 13 13 12 12 12 12 12 12 12 12 12 12 11 11 10 9 7 7 10 15 20 21 21 20 20 18
16 14 13 19 21 22 22 21 20 19 18 18 17 16 16 15 14 14 14 13 13 13 14 14 14 14 14 14 14 14 13 13 12 10 9 8 14 22 23 22 21 21 20
14 14 12 14 16 17 19 21 20 20 19 18 18 17 16 16 15 15 15 15 15 16 16 16 16 16 16 16 16 16 16 15 13 12 11 11 12 20 24 24 23 22 22
15 13 13 12 12 14 15 18 19 19 19 19 18 18 17 14 14 14 15 17 18 18 19 19 18 18 17 17 17 17 16 13 12 12 12 15 16 19 24 25 24 24 23
18 16 14 14 13 12 14 14 14 15 15 16 14 15 14 13 13 14 15 19 20 21 21 21 20 19 17 13 15 17 13 14 13 13 14 18 19 20 24 26 26 25 24
19 18 16 15 14 13 9 9 10 11 11 13 14 14 13 11 11 12 10 12 15 18 16 16 16 14 13 12 11 12 13 13 12 13 16 19 21 22 25 27 27 26 24
18 18 17 16 14 14 9 8 9 7 7 8 13 15 11 6 6 6 5 6 7 7 7 8 7 10 11 13 12 10 12 11 12 13 15 19 21 23 26 28 28 27 25
17 18 17 15 13 13 10 9 9 8 7 9 11 14 13 7 7 5 3 3 4 4 4 4 5 6 8 8 10 10 9 11 13 14 14 17 19 21 24 26 27 27 26
14 14 15 14 12 10 9 7 7 6 6 7 7 10 13 9 5 5 4 2 2 3 4 4 5 6 6 5 7 8 8 9 11 13 14 15 17 20 23 25 26 26 25
9 8 9 10 8 8 7 7 5 3 4 4 5 9 10 9 6 5 3 2 2 3 3 2 3 2 4 4 6 6 6 6 7 9 12 13 14 18 22 24 25 25 25
9 9 7 5 4 3 3 2 2 2 2 2 3 5 7 8 7 4 3 2 2 1 1 1 1 2 3 3 4 5 5 5 7 7 9 11 13 14 18 24 26 26 27
9 9 8 5 3 3 2 1 2 2 2 2 3 4 6 7 7 4 3 2 2 1 0 0 0 1 2 3 4 5 5 6 7 7 7 8 10 12 13 17 23 25 27
9 9 7 5 2 2 2 3 3 2 1 2 2 4 7 7 7 5 4 3 3 2 1 0 1 1 2 3 4 5 5 6 6 7 8 7 7 10 12 14 14 18 25
8 8 4 2 2 2 1 1 0 2 2 2 4 6 7 7 7 5 4 4 3 2 1 1 1 1 2 1 2 4 5 5 5 5 5 5 6 7 8 10 11 13 13
8 6 2 2 1 1 2 3 3 3 3 3 3 4 6 6 6 6 7 5 4 3 1 1 1 1 1 0 0 1 4 5 4 3 3 3 5 5 6 8 9 11 12
7 5 5 5 5 4 2 0 1 2 2 1 1 2 3 4 5 5 7 6 5 4 3 3 2 3 2 2 1 2 1 3 4 4 3 3 4 4 5 5 6 8 10
8 8 8 6 6 5 4 3 3 2 1 2 2 2 2 3 3 4 6 6 6 5 5 4 4 3 3 2 2 2 3 4 2 4 4 3 4 4 5 5 5 5 7
8 7 7 7 8 7 7 7 5 4 2 2 3 3 3 3 3 3 4 4 6 5 6 6 5 4 4 4 3 3 2 2 4 4 5 5 4 4 4 4 4 3 4
6 6 6 8 8 7 8 7 7 7 6 6 5 5 5 4 3 4 3 3 4 5 6 6 6 6 5 5 5 4 4 3 3 4 5 5 5 5 4 3 3 2 2
Wind_Direction
159 160 154 149 147 146 143 139 135 132 129 126 124 122 121 120 120 122 125 127 126 125 125 124 122 122 121 120 119 119 120 122 123 124 125 124 122 122 126 127 121 119 119
155 158 152 149 149 149 148 145 141 139 137 134 132 129 126 126 125 126 128 130 131 130 129 129 128 128 129 128 127 127 128 129 130 130 129 127 123 120 130 135 127 131 126
149 153 151 149 150 151 151 149 147 145 144 142 140 137 135 134 134 134 134 136 137 137 136 136 136 136 137 137 137 137 137 137 138 137 134 132 131 124 122 133 133 135 132
148 150 152 151 152 153 154 153 152 151 149 148 147 145 144 144 143 142 143 144 145 146 147 148 148 148 149 151 151 151 152 153 155 156 154 159 158 146 138 138 141 142 141
145 150 154 153 154 156 157 157 156 155 154 154 153 153 152 152 152 152 152 153 155 156 159 161 162 163 166 169 172 173 175 178 183 190 191 192 187 169 158 152 152 153 152
147 151 155 155 157 159 160 161 161 160 160 160 159 160 160 160 160 161 163 164 166 168 171 173 175 178 182 187 193 200 205 208 209 220 234 216 197 186 174 166 163 164 165
149 154 158 158 160 162 164 165 166 166 166 166 166 167 168 170 171 172 174 177 180 182 185 188 191 193 196 201 208 218 227 234 233 229 233 217 200 194 185 177 173 173 175
154 157 161 163 164 166 168 169 170 171 172 173 174 176 178 180 182 185 187 190 194 197 200 202 205 207 209 212 216 223 232 243 252 244 228 219 210 203 194 186 182 180 182
157 160 163 166 168 171 172 174 176 177 179 180 182 185 187 190 194 197 201 204 207 210 213 215 217 218 219 220 222 227 233 240 249 260 262 241 219 210 202 195 191 188 188
161 167 167 168 169 172 176 180 182 184 186 188 191 193 197 200 204 208 212 217 220 221 222 223 225 226 226 226 228 231 236 241 244 250 257 257 242 218 209 202 198 196 194
168 174 173 172 172 174 178 186 188 190 193 195 198 202 204 209 213 218 224 227 230 231 231 230 229 231 232 234 235 236 239 238 236 243 249 251 247 229 217 210 205 203 201
176 180 180 178 177 176 184 188 191 195 199 200 202 206 207 210 216 224 232 236 238 239 237 235 233 232 234 235 240 240 238 236 237 242 245 246 245 235 227 218 212 209 207
178 180 182 182 181 182 189 184 191 199 201 207 208 209 210 214 223 232 236 244 245 243 239 239 236 232 229 228 229 231 233 236 237 240 245 247 247 242 234 225 218 214 212
177 183 181 182 183 188 190 186 189 197 200 205 211 211 209 212 220 225 229 235 236 233 227 229 229 231 232 233 231 232 235 235 236 237 244 251 255 255 243 230 222 219 216
180 182 179 178 183 189 190 191 192 198 200 204 206 210 208 208 215 213 222 226 230 223 218 222 227 233 237 240 241 239 238 237 236 234 241 251 256 259 249 238 227 224 222
176 174 173 175 177 181 185 191 191 191 197 197 198 203 204 201 196 199 208 214 225 222 219 217 223 230 236 238 244 241 241 239 235 231 232 240 250 253 248 237 230 228 228
141 139 156 169 172 174 175 181 177 169 173 183 191 190 188 186 183 181 183 203 228 230 225 226 238 230 240 241 246 246 241 235 234 233 234 233 239 245 242 236 233 230 230
91 96 114 137 130 138 140 155 140 118 125 147 157 159 170 179 173 160 165 197 221 206 211 248 249 259 268 267 266 266 259 252 246 238 236 233 230 236 235 234 236 235 236
75 79 76 67 91 75 55 58 65 92 123 135 143 157 169 167 164 151 156 169 134 102 76 294 229 218 260 278 275 268 265 260 254 253 243 236 230 227 229 237 239 239 241
82 77 62 72 102 105 59 41 7 354 250 156 166 182 175 168 158 146 150 152 129 109 72 17 258 249 241 263 286 289 272 262 255 251 251 249 238 234 232 234 236 243 245
64 62 64 85 148 143 135 133 245 266 245 201 195 194 181 171 160 156 153 148 136 139 173 224 221 293 290 301 337 317 302 284 271 263 260 261 259 250 238 232 231 234 241
69 68 76 58 73 154 189 197 197 225 238 223 211 197 187 176 171 169 165 166 161 158 168 172 176 222 282 349 135 328 332 333 336 311 295 273 273 272 256 242 231 228 231
78 78 71 48 27 12 350 47 337 338 357 6 265 225 215 192 188 180 179 172 178 176 190 204 195 178 230 277 193 175 226 288 310 309 314 315 319 302 281 264 241 231 228
62 64 61 58 42 22 20 37 41 28 16 328 299 285 278 241 212 206 200 187 192 193 196 205 188 187 188 243 275 214 201 206 253 303 311 312 319 313 304 294 271 238 223
61 59 51 50 43 30 30 29 30 30 16 346 355 2 346 309 291 261 227 206 209 207 205 201 195 202 198 210 221 232 240 231 219 233 285 307 320 303 300 293 276 251 221
74 67 56 52 40 30 34 35 35 29 20 22 14 1 350 336 335 331 297 239 225 218 213 209 207 210 213 218 222 218 217 227 227 228 258 284 295 293 299 304 298 274 235
Height
1515 1519 1522 1525 1526 1527 1528 1529 1530 1531 1533 1534 1535 1536 1538 1539 1540 1541 1542 1543 1544 1545 1545 1546 1547 1547 1548 1548 1549 1549 1550 1550 1550 1551 1551 1552 1552 1552 1552 1553 1553 1553 1554
1512 1517 1521 1524 1526 1527 1528 1529 1530 1532 1533 1534 1535 1537 1538 1539 1540 1542 1543 1544 1544 1545 1546 1547 1547 1548 1548 1549 1549 1550 1550 1551 1551 1552 1553 1553 1554 1554 1554 1554 1554 1554 1555
1512 1516 1520 1524 1525 1527 1528 1529 1530 1532 1533 1534 1536 1537 1538 1540 1541 1542 1543 1544 1545 1546 1546 1547 1548 1548 1549 1550 1550 1551 1551 1552 1552 1553 1554 1554 1555 1555 1555 1555 1555 1555 1556
1512 1516 1520 1523 1525 1527 1528 1529 1531 1532 1533 1535 1536 1537 1538 1540 1541 1542 1543 1544 1545 1546 1546 1547 1548 1549 1549 1550 1551 1551 1552 1552 1553 1553 1554 1554 1555 1556 1556 1556 1556 1556 1557
1512 1516 1519 1522 1524 1526 1528 1529 1531 1532 1533 1535 1536 1537 1538 1540 1541 1542 1543 1544 1544 1545 1546 1547 1547 1548 1549 1550 1551 1551 1552 1552 1553 1553 1553 1554 1555 1556 1556 1557 1557 1557 1557
1512 1516 1519 1522 1524 1526 1527 1529 1530 1532 1533 1535 1536 1537 1538 1539 1540 1541 1542 1543 1544 1544 1545 1546 1546 1547 1548 1548 1549 1550 1551 1552 1552 1552 1553 1553 1554 1555 1556 1557 1557 1558 1558
1512 1515 1518 1521 1523 1525 1527 1528 1530 1531 1533 1534 1535 1537 1538 1539 1540 1540 1541 1542 1542 1543 1544 1544 1545 1545 1546 1547 1547 1548 1550 1550 1551 1551 1552 1552 1553 1554 1555 1556 1557 1557 1558
1512 1514 1517 1520 1522 1524 1526 1528 1529 1530 1532 1533 1535 1536 1537 1538 1539 1540 1540 1541 1541 1542 1542 1543 1543 1544 1544 1545 1545 1546 1547 1548 1549 1550 1550 1550 1551 1552 1554 1555 1555 1556 1557
1512 1514 1516 1518 1521 1523 1525 1527 1528 1530 1531 1532 1534 1535 1536 1537 1538 1538 1539 1540 1540 1540 1541 1541 1541 1542 1542 1543 1543 1544 1544 1545 1546 1547 1548 1548 1549 1550 1552 1553 1554 1554 1555
1511 1513 1515 1517 1519 1521 1523 1525 1527 1528 1530 1531 1532 1534 1535 1535 1536 1537 1537 1538 1538 1539 1539 1539 1540 1540 1540 1541 1541 1541 1542 1542 1543 1544 1545 1546 1547 1547 1549 1550 1551 1552 1553
1509 1511 1513 1515 1517 1519 1522 1523 1525 1526 1528 1529 1530 1532 1533 1534 1534 1535 1536 1536 1536 1536 1537 1537 1537 1537 1538 1538 1538 1538 1539 1539 1540 1541 1542 1543 1544 1545 1546 1547 1548 1549 1550
1505 1508 1510 1513 1515 1517 1519 1521 1522 1524 1525 1527 1528 1529 1530 1532 1532 1533 1533 1534 1534 1534 1534 1534 1534 1534 1534 1534 1535 1535 1535 1536 1537 1537 1538 1539 1541 1542 1542 1544 1545 1546 1547
1502 1505 1508 1510 1513 1515 1516 1518 1520 1521 1523 1525 1526 1527 1528 1529 1530 1530 1531 1530 1530 1531 1531 1531 1531 1531 1531 1531 1531 1531 1532 1533 1533 1534 1535 1536 1537 1538 1539 1540 1541 1542 1543
1500 1503 1506 1508 1510 1512 1514 1516 1518 1519 1521 1522 1524 1525 1526 1527 1527 1528 1528 1528 1528 1528 1527 1528 1528 1528 1528 1528 1528 1528 1529 1529 1530 1531 1532 1533 1534 1534 1535 1535 1537 1538 1539
1497 1501 1504 1507 1509 1511 1513 1514 1516 1517 1519 1520 1522 1523 1524 1524 1524 1525 1525 1525 1525 1525 1524 1524 1524 1524 1524 1524 1524 1524 1525 1525 1526 1527 1527 1529 1529 1529 1530 1531 1532 1533 1535
1496 1499 1501 1503 1507 1509 1511 1513 1514 1516 1517 1518 1519 1520 1521 1521 1521 1521 1522 1522 1521 1521 1521 1521 1520 1520 1520 1520 1520 1520 1520 1521 1521 1521 1522 1523 1524 1524 1525 1526 1527 1529 1530
1495 1497 1500 1502 1505 1506 1508 1510 1512 1514 1515 1516 1517 1518 1519 1519 1519 1519 1518 1518 1518 1518 1518 1517 1517 1517 1516 1515 1515 1515 1516 1516 1515 1516 1517 1517 1518 1519 1519 1520 1522 1523 1525
1496 1496 1498 1501 1502 1504 1504 1507 1510 1512 1512 1513 1514 1515 1516 1518 1517 1516 1515 1515 1515 1514 1514 1514 1513 1513 1512 1511 1511 1510 1511 1510 1510 1510 1511 1511 1512 1513 1514 1515 1517 1518 1519
1494 1493 1495 1496 1496 1498 1500 1504 1505 1508 1509 1509 1511 1513 1514 1515 1515 1514 1513 1512 1512 1511 1511 1510 1509 1509 1508 1507 1506 1505 1505 1505 1505 1505 1505 1506 1506 1507 1508 1509 1511 1512 1513
1492 1492 1491 1493 1491 1494 1497 1498 1503 1506 1507 1507 1509 1511 1512 1513 1512 1511 1510 1509 1509 1508 1508 1507 1506 1506 1505 1503 1502 1500 1500 1500 1500 1500 1500 1501 1501 1501 1502 1503 1504 1505 1507
1493 1492 1490 1490 1492 1494 1497 1498 1501 1503 1503 1504 1506 1508 1510 1511 1510 1509 1508 1507 1506 1506 1505 1504 1503 1502 1501 1500 1498 1496 1495 1495 1495 1495 1496 1496 1496 1496 1497 1497 1498 1499 1500
1492 1492 1494 1493 1493 1495 1497 1497 1497 1498 1500 1503 1504 1505 1507 1507 1507 1506 1505 1504 1503 1503 1502 1501 1501 1499 1498 1497 1495 1492 1491 1491 1490 1491 1492 1492 1492 1492 1492 1492 1492 1493 1494
1492 1493 1494 1494 1494 1495 1496 1495 1496 1498 1499 1500 1500 1502 1503 1504 1504 1503 1502 1501 1501 1501 1500 1499 1498 1497 1495 1494 1493 1491 1490 1488 1487 1486 1488 1488 1488 1488 1487 1487 1487 1487 1488
1496 1496 1495 1494 1495 1496 1495 1494 1495 1496 1497 1498 1498 1499 1499 1499 1499 1499 1498 1497 1497 1498 1497 1496 1495 1494 1492 1491 1490 1488 1488 1487 1486 1483 1482 1484 1484 1484 1483 1482 1482 1482 1483
1498 1498 1497 1497 1497 1496 1495 1494 1494 1494 1495 1495 1495 1495 1495 1494 1494 1494 1493 1493 1493 1493 1493 1492 1491 1490 1489 1488 1486 1485 1484 1483 1483 1481 1478 1478 1479 1479 1479 1478 1478 1478 1478
1500 1499 1499 1498 1497 1496 1495 1494 1493 1492 1491 1490 1490 1490 1490 1489 1489 1488 1488 1488 1488 1488 1488 1487 1487 1486 1485 1484 1483 1481 1480 1479 1478 1477 1475 1473 1473 1474 1474 1474 1474 1474 1474